When you browse on this site, cookies collect data to enhance your experience and personalize the content and advertising you see.
Visit our Privacy Policy to learn more. By continuing to use the site, you agree to this use of cookies and data.
  • In France
  • List of Countries
  • For 7 days
  • Water Temperature
  • Satellite Maps
  • Weather Map
  • Weather Widgets
  • user-avatar
    Login

    Hourly Weather Zaranj

    Today, 19 January, Saturday

    Time Temperature Precipitation Wind Pressure Humidity
    00:00 +15°C° 0 mm 6 mps 715 mmHg 27%
    01:00 +14°C° 0 mm 7 mps 715 mmHg 24%
    02:00 +13°C° 0 mm 6 mps 715 mmHg 26%
    03:00 +13°C° 0 mm 6 mps 715 mmHg 27%
    04:00 +12°C° 0 mm 4 mps 716 mmHg 26%
    05:00 +12°C° 0 mm 4 mps 716 mmHg 28%
    06:00 +11°C° 0 mm 4 mps 716 mmHg 31%
    07:00 +11°C° 0 mm 3 mps 716 mmHg 33%
    08:00 +12°C° 0 mm 3 mps 716 mmHg 29%
    09:00 +13°C° 0 mm 3 mps 716 mmHg 26%
    10:00 +16°C° 0 mm 3 mps 716 mmHg 22%
    11:00 +17°C° 0 mm 3 mps 716 mmHg 23%
    12:00 +18°C° 0 mm 2 mps 715 mmHg 23%
    13:00 +20°C° 0 mm 1 mps 715 mmHg 24%
    14:00 +20°C° 0 mm 2 mps 714 mmHg 23%
    15:00 +21°C° 0 mm 2 mps 714 mmHg 23%
    16:00 +21°C° 0 mm 2 mps 713 mmHg 23%
    17:00 +20°C° 0 mm 2 mps 713 mmHg 25%
    18:00 +19°C° 0 mm 2 mps 713 mmHg 28%
    19:00 +18°C° 0 mm 2 mps 713 mmHg 30%
    20:00 +18°C° 0 mm 3 mps 713 mmHg 31%
    21:00 +17°C° 0 mm 4 mps 713 mmHg 32%
    22:00 +16°C° 0 mm 6 mps 714 mmHg 33%
    23:00 +15°C° 0 mm 7 mps 714 mmHg 33%

    Tomorrow, 20 January, Sunday

    Time Temperature Precipitation Wind Pressure Humidity
    00:00 +12°C° 0 mm 8 mps 715 mmHg 33%
    01:00 +11°C° 0 mm 9 mps 716 mmHg 34%
    02:00 +11°C° 0 mm 8 mps 716 mmHg 35%
    03:00 +10°C° 0 mm 7 mps 717 mmHg 36%
    04:00 +9°C° 0 mm 6 mps 718 mmHg 37%
    05:00 +9°C° 0 mm 6 mps 719 mmHg 39%
    06:00 +8°C° 0 mm 6 mps 720 mmHg 41%
    07:00 +8°C° 0 mm 6 mps 721 mmHg 43%
    08:00 +9°C° 0 mm 6 mps 722 mmHg 41%
    09:00 +9°C° 0 mm 7 mps 722 mmHg 38%
    10:00 +10°C° 0 mm 7 mps 723 mmHg 36%
    11:00 +11°C° 0 mm 6 mps 722 mmHg 33%
    12:00 +11°C° 0 mm 6 mps 722 mmHg 30%
    13:00 +13°C° 0 mm 5 mps 721 mmHg 26%
    14:00 +13°C° 0 mm 5 mps 721 mmHg 25%
    15:00 +13°C° 0 mm 5 mps 721 mmHg 24%
    16:00 +13°C° 0 mm 5 mps 721 mmHg 23%
    17:00 +12°C° 0 mm 5 mps 721 mmHg 24%
    18:00 +12°C° 0 mm 5 mps 722 mmHg 25%
    19:00 +10°C° 0 mm 5 mps 722 mmHg 26%
    20:00 +9°C° 0 mm 5 mps 722 mmHg 28%
    21:00 +9°C° 0 mm 5 mps 723 mmHg 30%
    22:00 +9°C° 0 mm 5 mps 723 mmHg 31%
    23:00 +8°C° 0 mm 5 mps 723 mmHg 32%

    Day after tomorrow, 21 January, Monday

    Time Temperature Precipitation Wind Pressure Humidity
    00:00 +8°C° 0 mm 5 mps 723 mmHg 33%
    01:00 +8°C° 0 mm 5 mps 723 mmHg 34%
    02:00 +7°C° 0 mm 6 mps 723 mmHg 35%
    03:00 +7°C° 0 mm 6 mps 723 mmHg 35%
    04:00 +6°C° 0 mm 7 mps 723 mmHg 36%
    05:00 +6°C° 0 mm 7 mps 723 mmHg 38%
    06:00 +5°C° 0 mm 7 mps 723 mmHg 39%
    07:00 +5°C° 0 mm 7 mps 724 mmHg 40%
    08:00 +6°C° 0 mm 8 mps 724 mmHg 38%
    09:00 +7°C° 0 mm 8 mps 724 mmHg 35%
    10:00 +8°C° 0 mm 9 mps 724 mmHg 32%
    11:00 +10°C° 0 mm 9 mps 723 mmHg 29%
    12:00 +11°C° 0 mm 8 mps 723 mmHg 27%
    13:00 +12°C° 0 mm 8 mps 722 mmHg 24%
    14:00 +12°C° 0 mm 8 mps 721 mmHg 24%
    15:00 +12°C° 0 mm 7 mps 721 mmHg 23%
    16:00 +12°C° 0 mm 7 mps 721 mmHg 23%
    17:00 +11°C° 0 mm 7 mps 721 mmHg 25%
    18:00 +10°C° 0 mm 6 mps 721 mmHg 26%
    19:00 +9°C° 0 mm 5 mps 721 mmHg 28%
    20:00 +9°C° 0 mm 5 mps 721 mmHg 29%
    21:00 +8°C° 0 mm 5 mps 721 mmHg 31%
    22:00 +8°C° 0 mm 5 mps 721 mmHg 32%
    23:00 +7°C° 0 mm 4 mps 721 mmHg 33%

    22 January, Tuesday

    Time Temperature Precipitation Wind Pressure Humidity
    00:00 +7°C° 0 mm 4 mps 721 mmHg 35%
    01:00 +7°C° 0 mm 4 mps 720 mmHg 36%
    02:00 +6°C° 0 mm 4 mps 720 mmHg 37%
    03:00 +7°C° 0 mm 3 mps 720 mmHg 37%
    04:00 +7°C° 0 mm 3 mps 720 mmHg 38%
    05:00 +7°C° 0 mm 3 mps 720 mmHg 38%
    06:00 +7°C° 0 mm 3 mps 720 mmHg 39%
    07:00 +7°C° 0 mm 3 mps 721 mmHg 39%
    08:00 +8°C° 0 mm 2 mps 721 mmHg 36%
    09:00 +9°C° 0 mm 2 mps 721 mmHg 33%
    10:00 +10°C° 0 mm 2 mps 721 mmHg 30%
    11:00 +12°C° 0 mm 2 mps 720 mmHg 28%
    12:00 +12°C° 0 mm 1 mps 719 mmHg 26%
    13:00 +13°C° 0 mm 1 mps 719 mmHg 23%
    14:00 +14°C° 0 mm 1 mps 718 mmHg 22%
    15:00 +14°C° 0 mm 1 mps 718 mmHg 21%
    16:00 +14°C° 0 mm 1 mps 718 mmHg 20%
    17:00 +14°C° 0 mm 1 mps 718 mmHg 21%
    18:00 +13°C° 0 mm 2 mps 719 mmHg 22%
    19:00 +12°C° 0 mm 2 mps 719 mmHg 23%
    20:00 +12°C° 0 mm 2 mps 719 mmHg 24%
    21:00 +11°C° 0 mm 1 mps 719 mmHg 24%
    22:00 +10°C° 0 mm 1 mps 719 mmHg 25%
    23:00 +10°C° 0 mm 1 mps 719 mmHg 26%

    23 January, Wednesday

    Time Temperature Precipitation Wind Pressure Humidity
    00:00 +10°C° 0 mm 1 mps 719 mmHg 26%
    01:00 +9°C° 0 mm 1 mps 719 mmHg 27%
    02:00 +9°C° 0 mm 1 mps 719 mmHg 26%
    03:00 +9°C° 0 mm 1 mps 719 mmHg 26%
    04:00 +8°C° 0 mm 2 mps 719 mmHg 26%
    05:00 +8°C° 0 mm 2 mps 720 mmHg 27%
    06:00 +8°C° 0 mm 2 mps 720 mmHg 27%
    07:00 +7°C° 0 mm 2 mps 720 mmHg 28%
    08:00 +9°C° 0 mm 2 mps 721 mmHg 25%
    09:00 +10°C° 0 mm 2 mps 721 mmHg 22%
    10:00 +13°C° 0 mm 2 mps 722 mmHg 20%
    11:00 +14°C° 0 mm 1 mps 721 mmHg 18%
    12:00 +15°C° 0 mm 1 mps 721 mmHg 17%
    13:00 +15°C° 0 mm 1 mps 720 mmHg 15%
    14:00 +16°C° 0 mm 1 mps 720 mmHg 15%
    15:00 +16°C° 0 mm 1 mps 720 mmHg 14%
    16:00 +16°C° 0 mm 1 mps 720 mmHg 14%
    17:00 +15°C° 0 mm 1 mps 720 mmHg 15%
    18:00 +14°C° 0 mm 1 mps 720 mmHg 16%
    19:00 +13°C° 0 mm 1 mps 720 mmHg 17%
    20:00 +13°C° 0 mm 1 mps 721 mmHg 17%
    21:00 +12°C° 0 mm 1 mps 721 mmHg 18%
    22:00 +12°C° 0 mm 1 mps 721 mmHg 19%
    23:00 +11°C° 0 mm 1 mps 721 mmHg 20%

    24 January, Thursday

    Time Temperature Precipitation Wind Pressure Humidity
    00:00 +11°C° 0 mm 1 mps 721 mmHg 21%
    01:00 +11°C° 0 mm 1 mps 721 mmHg 21%
    02:00 +9°C° 0 mm 2 mps 721 mmHg 23%
    03:00 +9°C° 0 mm 2 mps 721 mmHg 24%
    04:00 +9°C° 0 mm 3 mps 721 mmHg 26%
    05:00 +9°C° 0 mm 3 mps 721 mmHg 27%
    06:00 +8°C° 0 mm 3 mps 722 mmHg 29%
    07:00 +8°C° 0 mm 3 mps 722 mmHg 30%
    08:00 +9°C° 0 mm 2 mps 722 mmHg 28%
    09:00 +12°C° 0 mm 2 mps 723 mmHg 25%
    10:00 +13°C° 0 mm 2 mps 723 mmHg 22%
    11:00 +14°C° 0 mm 2 mps 722 mmHg 20%
    12:00 +15°C° 0 mm 2 mps 722 mmHg 18%
    13:00 +16°C° 0 mm 2 mps 721 mmHg 16%
    14:00 +17°C° 0 mm 2 mps 721 mmHg 15%
    15:00 +17°C° 0 mm 2 mps 721 mmHg 15%
    16:00 +18°C° 0 mm 1 mps 720 mmHg 14%
    17:00 +16°C° 0 mm 1 mps 721 mmHg 15%
    18:00 +15°C° 0 mm 1 mps 721 mmHg 17%
    19:00 +14°C° 0 mm 1 mps 721 mmHg 18%
    20:00 +13°C° 0 mm 1 mps 721 mmHg 19%
    21:00 +13°C° 0 mm 1 mps 722 mmHg 20%
    22:00 +12°C° 0 mm 1 mps 722 mmHg 21%
    23:00 +11°C° 0 mm 1 mps 721 mmHg 22%
    Show more